LKMT Weather Reports


time (UTC)temp
C
wind
direction
speed
KPH
gust
KPH
rain 1hr
cm
rain 24hr
cm
rain mn
cm
humidity
%
barometer
mb
20260508012255 11 20 8.0 0.0 0.00 0.00 0.00 99
20260508010240 10 20 8.0 0.0 0.00 0.00 0.00 100 1015.0
20260508003223 10 30 9.7 0.0 0.00 0.00 0.00 100 1015.0
20260508002155 11 20 14.5 0.0 0.00 0.00 0.00 99
20260508000234 11 30 16.1 0.0 0.00 0.00 0.00 93 1015.0
20260507233224 11 360 12.9 0.0 0.00 0.00 0.00 93 1015.0
20260507232156 11 0 8.0 0.0 0.00 0.00 0.00 99
20260507230218 11 60 8.0 0.0 0.00 0.00 0.00 100 1015.0
20260507223224 11 360 9.7 0.0 0.00 0.00 0.00 100 1015.0
20260507222457 12 10 11.3 0.0 0.00 0.00 0.00 99
20260507220236 11 20 12.9 0.0 0.00 0.00 0.00 100 1015.0
20260507213223 12 360 14.5 0.0 0.00 0.00 0.00 93 1015.0
20260507212158 12 360 11.3 0.0 0.00 0.00 0.00 99
20260507210234 12 360 12.9 0.0 0.00 0.00 0.00 100 1015.0
20260507205104 12 360 12.9 0.0 0.00 0.00 0.00 100 1015.0
20260507204510 12 360 12.9 0.0 0.00 0.00 0.00 100 1015.0
20260507203223 12 320 9.7 0.0 0.00 0.00 0.00 100 1015.0
20260507202158 12 20 14.5 0.0 0.00 0.00 0.00 99
20260507201304 12 340 9.7 0.0 0.00 0.00 0.00 93 1014.0
20260507200234 12 30 14.5 0.0 0.00 0.00 0.00 93 1014.0
20260507193224 12 10 9.7 0.0 0.00 0.00 0.00 93 1014.0
20260507192259 15 350 11.3 0.0 0.00 0.00 0.00 77
20260507190226 15 340 16.1 0.0 0.00 0.00 0.00 77 1013.0
20260507183803 16 350 20.9 0.0 0.00 0.00 0.00 72 1013.0
20260507183303 16 360 16.1 0.0 0.00 0.00 0.00 72 1013.0
20260507182211 17 350 19.3 0.0 0.00 0.00 0.00 55
20260507180232 16 340 19.3 0.0 0.00 0.00 0.00 63 1012.0
20260507173238 17 190 9.7 0.0 0.00 0.00 0.00 52 1011.0
20260507172212 18 180 11.3 0.0 0.00 0.00 0.00 45
20260507170241 17 180 12.9 0.0 0.00 0.00 0.00 52 1011.0
20260507163237 17 220 14.5 0.0 0.00 0.00 0.00 55 1011.0
20260507162526 18 220 14.5 0.0 0.00 0.00 0.00 52
20260507160227 17 220 14.5 0.0 0.00 0.00 0.00 59 1011.0
20260507153230 17 220 20.9 0.0 0.00 0.00 0.00 59 1011.0
20260507152158 18 220 22.5 0.0 0.00 0.00 0.00 52
20260507150233 18 220 19.3 0.0 0.00 0.00 0.00 52 1011.0
20260507143231 18 240 20.9 0.0 0.00 0.00 0.00 52 1011.0
20260507142158 20 240 22.5 0.0 0.00 0.00 0.00 45
20260507140233 20 250 20.9 0.0 0.00 0.00 0.00 49 1011.0
20260507133231 18 230 20.9 0.0 0.00 0.00 0.00 48 1011.0
20260507132258 20 220 19.3 0.0 0.00 0.00 0.00 49
20260507130231 20 220 20.9 0.0 0.00 0.00 0.00 52 1011.0
20260507123231 20 210 22.5 0.0 0.00 0.00 0.00 52 1011.0
20260507122157 18 230 25.7 0.0 0.00 0.00 0.00 55
20260507120234 18 230 25.7 0.0 0.00 0.00 0.00 55 1011.0
20260507113230 18 220 22.5 0.0 0.00 0.00 0.00 55 1011.0
20260507112213 20 230 25.7 0.0 0.00 0.00 0.00 52
20260507110235 20 230 25.7 0.0 0.00 0.00 0.00 52 1011.0
20260507103231 20 220 25.7 0.0 0.00 0.00 0.00 52 1011.0
20260507102356 20 240 25.7 0.0 0.00 0.00 0.00 52
20260507100225 20 240 25.7 0.0 0.00 0.00 0.00 56 1011.0
20260507093230 20 220 25.7 0.0 0.00 0.00 0.00 56 1011.0
20260507092157 18 230 25.7 0.0 0.00 0.00 0.00 59
20260507090233 18 220 24.1 0.0 0.00 0.00 0.00 59 1011.0
20260507083231 17 230 22.5 0.0 0.00 0.00 0.00 63 1010.0
20260507082156 17 220 29.0 0.0 0.00 0.00 0.00 63
20260507080233 17 220 27.4 0.0 0.00 0.00 0.00 67 1010.0
20260507073223 17 230 25.7 0.0 0.00 0.00 0.00 67 1010.0
20260507072156 17 230 25.7 0.0 0.00 0.00 0.00 67
20260507070235 17 230 24.1 0.0 0.00 0.00 0.00 67 1010.0
20260507063231 16 240 16.1 0.0 0.00 0.00 0.00 72 1010.0
20260507062156 16 230 25.7 0.0 0.00 0.00 0.00 72
20260507060235 15 230 24.1 0.0 0.00 0.00 0.00 77 1010.0
20260507053224 15 250 24.1 0.0 0.00 0.00 0.00 77 1009.0
20260507052156 16 230 25.7 0.0 0.00 0.00 0.00 72
20260507050234 15 230 22.5 0.0 0.00 0.00 0.00 72 1009.0
20260507043224 15 240 20.9 0.0 0.00 0.00 0.00 72 1008.0
20260507042358 15 250 14.5 0.0 0.00 0.00 0.00 72
20260507040232 15 250 12.9 0.0 0.00 0.00 0.00 72 1008.0
20260507033224 16 210 24.1 0.0 0.00 0.00 0.00 67 1007.0
20260507032155 16 210 25.7 0.0 0.00 0.00 0.00 67
20260507030239 16 220 20.9 0.0 0.00 0.00 0.00 67 1007.0
20260507023223 17 220 20.9 0.0 0.00 0.00 0.00 63 1006.0
20260507022154 17 220 22.5 0.0 0.00 0.00 0.00 63
20260507020239 16 220 20.9 0.0 0.00 0.00 0.00 67 1007.0
20260507013224 17 190 24.1 0.0 0.00 0.00 0.00 63 1006.0